This is the latest recevied weather packets stored in our database for station/object DG4MJS-10. If no packets are shown the sender has not sent any weather packets the latest 10 day(s).
| Time | Temp. | Humidity | Pressure | Rain* | Wind** | Luminosity | Snow |
|---|---|---|---|---|---|---|---|
| 1787931872 | 22.22° C | 70% | 1014.7 hPa | - | - | - | - |
| 1787930971 | 22.22° C | 73% | 1015.1 hPa | - | - | - | - |
| 1787930071 | 22.22° C | 77% | 1014.9 hPa | - | - | - | - |
| 1787929171 | 21.67° C | 77% | 1014.7 hPa | - | - | - | - |
| 1787928271 | 21.67° C | 76% | 1014.5 hPa | - | - | - | - |
| 1787927371 | 21.67° C | 77% | 1014.8 hPa | - | - | - | - |
| 1787926471 | 21.67° C | 76% | 1015.2 hPa | - | - | - | - |
| 1787925571 | 21.67° C | 77% | 1015.5 hPa | - | - | - | - |
| 1787924671 | 22.22° C | 75% | 1015 hPa | - | - | - | - |
| 1787923771 | 22.22° C | 78% | 1014.7 hPa | - | - | - | - |
| 1787922871 | 21.67° C | 77% | 1014.5 hPa | - | - | - | - |
| 1787921971 | 21.67° C | 78% | 1014.9 hPa | - | - | - | - |
| 1787921070 | 21.11° C | 77% | 1016 hPa | - | - | - | - |
| 1787920170 | 21.67° C | 74% | 1016.3 hPa | - | - | - | - |
| 1787919270 | 22.22° C | 70% | 1016 hPa | - | - | - | - |
| 1787918369 | 22.22° C | 71% | 1015.3 hPa | - | - | - | - |
| 1787917469 | 22.22° C | 73% | 1015 hPa | - | - | - | - |
| 1787916569 | 22.22° C | 72% | 1014.8 hPa | - | - | - | - |
| 1787915669 | 22.22° C | 69% | 1014.2 hPa | - | - | - | - |
| 1787914769 | 22.22° C | 70% | 1014 hPa | - | - | - | - |
| 1787913869 | 21.67° C | 71% | 1014.2 hPa | - | - | - | - |
| 1787912969 | 21.67° C | 75% | 1014.6 hPa | - | - | - | - |
| 1787912071 | 21.67° C | 81% | 1014.8 hPa | - | - | - | - |
| 1787911171 | 22.22° C | 88% | 1014.9 hPa | - | - | - | - |
| 1787910271 | 22.22° C | 77% | 1014.9 hPa | - | - | - | - |
* Rain since midnight (hover to see other rain measurements)
** Current wind speed in m/s (hover to see current wind gust speed)